Location: Alsip
(41.6689°N, 87.7387°W)
Time: 10:06:52
(UTC+00:00)

GEOS 3 Rocket - Pass Details

Date: 28 October 2020
Orbit: 770 x 850 km, 115.0° (Epoch: 25 November)

Event Time Altitude Azimuth Distance (km) Brightness Sun altitude
Exits shadow 01:50:13 46° 278° (W) 1,112 4.6 -33.9°
Drops below altitude 10° 01:54:24 10° 315° (NW) 2,466 6.7 -34.6°
Sets 01:56:48 0° 320° (NW) 3,411 7.5 -35.1°
